KA8DUX-2 Weather Reports


Display with metric or nautical units.
time (UTC)temp
F
wind
direction
speed
MPH
gust
MPH
rain 1hr
in
rain 24hr
in
rain mn
in
humidity
%
barometer
mb
20260903180111 82 148 0.0 1.0 0.00 0.01 0.01 83 1014.7
20260903175610 81 129 0.0 1.0 0.00 0.01 0.01 83 1014.4
20260903175109 82 145 0.0 1.0 0.00 0.01 0.01 83 1014.3
20260903174604 82 86 1.0 1.0 0.00 0.01 0.01 83 1014.2
20260903174059 83 138 0.0 0.0 0.00 0.01 0.01 83 1013.9
20260903173554 83 115 0.0 0.0 0.00 0.01 0.01 82 1013.9
20260903173050 84 207 2.0 3.0 0.00 0.01 0.01 81 1013.7
20260903172544 84 135 0.0 0.0 0.00 0.01 0.01 81 1013.4
20260903172040 84 223 0.0 1.0 0.00 0.01 0.01 81 1013.1
20260903171534 84 155 0.0 0.0 0.00 0.01 0.01 81 1013.0
20260903171025 85 100 0.0 0.0 0.00 0.01 0.01 80 1013.3
20260903170523 86 123 0.0 0.0 0.00 0.01 0.01 80 1013.0
20260903170019 86 162 1.0 2.0 0.00 0.01 0.01 78 1012.8
20260903165511 86 115 0.0 1.0 0.00 0.01 0.01 79 1012.7
20260903165007 86 104 2.0 2.0 0.00 0.01 0.01 78 1012.2
20260903164507 86 139 1.0 2.0 0.00 0.01 0.01 78 1011.9
20260903164002 87 270 4.0 5.0 0.00 0.01 0.01 79 1011.9
20260903163456 87 120 1.0 1.0 0.00 0.01 0.01 79 1012.1
20260903162953 87 140 1.0 1.0 0.00 0.01 0.01 79 1011.6
20260903162449 87 131 0.0 1.0 0.00 0.01 0.01 81 1011.5
20260903161944 86 200 2.0 3.0 0.00 0.01 0.01 82 1011.7
20260903161440 86 148 2.0 2.0 0.00 0.01 0.01 82 1011.9
20260903160936 85 148 1.0 1.0 0.00 0.01 0.01 84 1012.1
20260903160434 84 137 0.0 1.0 0.00 0.01 0.01 85 1011.8
20260903155933 84 184 1.0 1.0 0.00 0.01 0.01 85 1011.9
20260903155428 85 148 0.0 0.0 0.00 0.01 0.01 86 1012.1
20260903154924 84 130 0.0 1.0 0.00 0.01 0.01 86 1012.0
20260903154420 84 177 1.0 2.0 0.00 0.01 0.01 85 1012.0
20260903153915 84 151 0.0 1.0 0.00 0.01 0.01 86 1011.9
20260903153410 84 129 0.0 0.0 0.00 0.01 0.01 86 1012.1
20260903152907 84 128 0.0 1.0 0.00 0.01 0.01 86 1012.0
20260903152403 84 136 0.0 0.0 0.00 0.01 0.01 87 1012.2
20260903151858 83 133 0.0 0.0 0.00 0.01 0.01 87 1012.5
20260903151353 83 140 0.0 0.0 0.00 0.01 0.01 88 1012.4
20260903150852 83 141 0.0 1.0 0.00 0.01 0.01 88 1012.5
20260903150347 83 145 0.0 0.0 0.00 0.01 0.01 88 1012.5
20260903145842 82 168 0.0 0.0 0.00 0.01 0.01 88 1012.6
20260903145337 82 134 0.0 0.0 0.00 0.01 0.01 89 1012.6
20260903144836 82 131 1.0 1.0 0.00 0.01 0.01 89 1012.5
20260903144332 82 137 0.0 0.0 0.00 0.01 0.01 90 1012.6
20260903143827 82 133 0.0 0.0 0.00 0.01 0.01 90 1012.4
20260903143324 82 137 0.0 0.0 0.00 0.01 0.01 91 1012.4
20260903142819 82 142 0.0 1.0 0.00 0.01 0.01 91 1012.8
20260903142315 82 132 0.0 0.0 0.00 0.01 0.01 92 1012.5
20260903141811 81 144 0.0 0.0 0.00 0.01 0.01 94 1012.6
20260903141307 80 136 0.0 0.0 0.00 0.01 0.01 97 1012.4
20260903140806 79 142 0.0 0.0 0.00 0.01 0.01 99 1012.3
20260903140301 78 128 0.0 0.0 0.00 0.01 0.01 99 1012.3
20260903135757 77 136 0.0 0.0 0.00 0.01 0.01 99 1012.5
20260903135253 77 154 0.0 0.0 0.00 0.01 0.01 99 1012.6
20260903134751 76 124 0.0 0.0 0.00 0.01 0.01 99 1012.6
20260903134247 76 131 0.0 0.0 0.00 0.01 0.01 99 1012.6
20260903133744 75 131 0.0 0.0 0.00 0.01 0.01 99 1012.7
20260903133240 75 130 0.0 0.0 0.00 0.01 0.01 99 1012.6
20260903132735 75 135 0.0 0.0 0.00 0.01 0.01 99 1012.9
20260903132229 75 133 0.0 0.0 0.00 0.01 0.01 99 1012.7
20260903131724 75 130 0.0 0.0 0.00 0.01 0.01 99 1012.6
20260903131219 74 131 0.0 0.0 0.00 0.01 0.01 99 1012.7
20260903130713 74 141 0.0 0.0 0.00 0.01 0.01 99 1012.7
20260903130208 75 135 0.0 0.0 0.00 0.01 0.01 99 1012.8
20260903125706 75 161 0.0 0.0 0.00 0.01 0.01 99 1012.9
20260903125202 74 152 0.0 0.0 0.00 0.01 0.01 99 1012.6
20260903124701 74 138 0.0 0.0 0.05 0.01 0.01 99 1012.7
20260903124156 74 143 0.0 0.0 0.05 0.01 0.01 99 1012.6
20260903123655 74 141 0.0 0.0 0.00 0.00 0.00 99 1012.7
20260903123154 74 132 0.0 0.0 0.00 0.00 0.00 99 1012.9
20260903122654 74 133 0.0 0.0 0.00 0.00 0.00 99 1012.8
20260903122148 74 134 0.0 0.0 0.00 0.00 0.00 99 1012.7
20260903121647 74 129 0.0 0.0 0.00 0.00 0.00 99 1012.5
20260903121144 74 142 0.0 0.0 0.00 0.00 0.00 99 1012.6
20260903120642 74 140 0.0 0.0 0.00 0.00 0.00 99 1012.5
20260903120137 73 122 0.0 0.0 0.00 0.00 0.00 99 1012.7
20260903115635 73 133 0.0 0.0 0.00 0.00 0.00 99 1012.9
20260903115131 73 126 0.0 0.0 0.00 0.00 0.00 99 1013.1
20260903114626 73 216 2.0 2.0 0.00 0.00 0.00 99 1013.4
20260903114121 73 136 0.0 0.0 0.00 0.00 0.00 99 1012.8
20260903113616 73 128 0.0 0.0 0.00 0.00 0.00 99 1012.7
20260903113113 73 127 0.0 0.0 0.00 0.00 0.00 99 1012.8
20260903112608 72 128 0.0 0.0 0.00 0.00 0.00 99 1012.6
20260903112103 72 127 0.0 0.0 0.00 0.00 0.00 99 1012.6
20260903111602 72 125 0.0 0.0 0.00 0.00 0.00 99 1012.8
20260903111058 72 131 0.0 0.0 0.00 0.00 0.00 99 1012.6
20260903110554 72 129 0.0 0.0 0.00 0.00 0.00 99 1012.4
20260903110048 72 131 0.0 0.0 0.00 0.00 0.00 99 1012.6
20260903105543 72 131 0.0 0.0 0.00 0.00 0.00 99 1012.3
20260903105038 72 131 0.0 0.0 0.00 0.00 0.00 99 1012.5
20260903104537 72 131 0.0 0.0 0.00 0.00 0.00 99 1012.4
20260903104033 72 131 0.0 0.0 0.00 0.00 0.00 99 1012.6
20260903103529 72 131 0.0 0.0 0.00 0.00 0.00 99 1012.7
20260903103026 72 131 0.0 0.0 0.00 0.00 0.00 99 1012.6
20260903102520 72 129 0.0 0.0 0.00 0.00 0.00 99 1012.5
20260903102020 72 127 0.0 0.0 0.00 0.00 0.00 99 1012.6
20260903101514 72 131 0.0 0.0 0.00 0.00 0.00 99 1012.6
20260903101010 72 132 0.0 0.0 0.00 0.00 0.00 99 1012.6
20260903100505 72 132 0.0 0.0 0.00 0.00 0.00 99 1012.7
20260903100003 73 135 0.0 0.0 0.00 0.00 0.00 99 1012.5
20260903095456 73 127 0.0 0.0 0.00 0.00 0.00 99 1012.5
20260903094951 73 135 0.0 0.0 0.00 0.00 0.00 99 1012.5
20260903094450 73 127 0.0 0.0 0.00 0.00 0.00 99 1012.4
20260903093947 73 127 0.0 0.0 0.00 0.00 0.00 99 1012.5
20260903093442 73 127 0.0 0.0 0.00 0.00 0.00 99 1012.4
20260903092938 73 127 0.0 0.0 0.00 0.00 0.00 99 1012.5
20260903092437 73 127 0.0 0.0 0.00 0.00 0.00 99 1012.4
20260903091936 73 127 0.0 0.0 0.00 0.00 0.00 99 1012.5
20260903091434 73 127 0.0 0.0 0.00 0.00 0.00 99 1012.4
20260903090930 73 127 0.0 0.0 0.00 0.00 0.00 99 1012.7
20260903090426 73 119 0.0 0.0 0.00 0.00 0.00 99 1012.6
20260903085924 73 127 0.0 0.0 0.00 0.00 0.00 99 1012.6
20260903085423 73 127 0.0 0.0 0.00 0.00 0.00 99 1012.7
20260903084922 73 127 0.0 0.0 0.00 0.00 0.00 99 1012.6
20260903084421 73 127 0.0 0.0 0.00 0.00 0.00 99 1012.6
20260903083916 73 127 0.0 0.0 0.00 0.00 0.00 99 1012.4
20260903083413 73 127 0.0 0.0 0.00 0.00 0.00 99 1012.3
20260903082911 73 127 0.0 0.0 0.00 0.00 0.00 99 1012.4
20260903082406 73 127 0.0 0.0 0.00 0.00 0.00 99 1012.4
20260903081902 73 128 0.0 0.0 0.00 0.00 0.00 99 1012.7
20260903081356 73 133 0.0 0.0 0.00 0.00 0.00 99 1012.4
20260903080853 73 128 0.0 0.0 0.00 0.00 0.00 99 1012.4
20260903080350 73 127 0.0 0.0 0.00 0.00 0.00 99 1012.6
20260903075849 73 128 0.0 0.0 0.00 0.00 0.00 99 1012.4
20260903075345 73 128 0.0 0.0 0.00 0.00 0.00 99 1012.4
20260903074839 73 128 0.0 0.0 0.00 0.00 0.00 99 1012.5
20260903074339 73 128 0.0 0.0 0.00 0.00 0.00 99 1012.2
20260903073835 73 128 0.0 0.0 0.00 0.00 0.00 99 1012.4
20260903073330 73 128 0.0 0.0 0.00 0.00 0.00 99 1012.2
20260903072826 73 128 0.0 0.0 0.00 0.00 0.00 99 1012.3
20260903072321 73 129 0.0 0.0 0.00 0.00 0.00 99 1012.4
20260903071818 73 129 0.0 0.0 0.00 0.00 0.00 99 1012.3
20260903071314 74 129 0.0 0.0 0.00 0.00 0.00 99 1012.4
20260903070808 74 129 0.0 0.0 0.00 0.00 0.00 99 1012.2
20260903070304 74 129 0.0 0.0 0.00 0.00 0.00 99 1012.3
20260903065758 74 129 0.0 0.0 0.00 0.00 0.00 99 1012.2
20260903065258 74 129 0.0 0.0 0.00 0.00 0.00 99 1012.2
20260903064757 74 133 0.0 0.0 0.00 0.00 0.00 99 1012.5
20260903064253 74 136 0.0 0.0 0.00 0.00 0.00 99 1012.3
20260903063749 74 133 0.0 0.0 0.00 0.00 0.00 99 1012.2
20260903063243 74 133 0.0 0.0 0.00 0.00 0.00 99 1012.3
20260903062740 74 135 0.0 0.0 0.00 0.00 0.00 99 1012.3
20260903062239 74 141 0.0 0.0 0.00 0.00 0.00 99 1012.5
20260903061735 74 128 0.0 0.0 0.00 0.00 0.00 99 1012.4
20260903061234 74 129 0.0 0.0 0.00 0.00 0.00 99 1012.2
20260903060730 75 129 0.0 0.0 0.00 0.00 0.00 99 1012.2
20260903060230 75 138 0.0 0.0 0.00 0.00 0.00 99 1012.3
20260903055727 75 134 0.0 0.0 0.00 0.00 0.00 99 1012.3
20260903055226 75 128 0.0 0.0 0.00 0.00 0.00 99 1012.3
20260903054721 75 128 0.0 0.0 0.00 0.00 0.00 99 1012.3
20260903054216 75 128 0.0 0.0 0.00 0.00 0.00 99 1012.3
20260903053713 75 128 0.0 0.0 0.00 0.00 0.00 99 1012.3
20260903053207 75 130 0.0 0.0 0.00 0.00 0.00 99 1012.2
20260903052703 75 133 0.0 0.0 0.00 0.00 0.00 99 1012.3
20260903052158 75 133 0.0 0.0 0.00 0.00 0.00 99 1012.2
20260903051653 75 129 0.0 0.0 0.00 0.00 0.00 99 1012.3
20260903051149 75 128 0.0 0.0 0.00 0.00 0.00 99 1012.2
20260903050644 75 128 0.0 0.0 0.00 0.00 0.00 99 1012.1
20260903050138 75 126 0.0 0.0 0.00 0.00 0.00 99 1012.0
20260903045638 75 128 0.0 0.0 0.00 0.00 0.00 99 1012.0
20260903045135 75 128 0.0 0.0 0.00 0.00 0.00 99 1012.0
20260903044630 75 128 0.0 0.0 0.00 0.00 0.00 99 1012.0
20260903044125 75 128 0.0 0.0 0.00 0.00 0.00 99 1011.9
20260903043621 76 128 0.0 0.0 0.00 0.00 0.00 99 1012.1
20260903043120 76 128 0.0 0.0 0.00 0.00 0.00 99 1012.0
20260903042615 76 128 0.0 0.0 0.00 0.00 0.00 99 1012.1
20260903042110 76 126 0.0 0.0 0.00 0.00 0.00 99 1011.9
20260903041607 76 128 0.0 0.0 0.00 0.00 0.00 99 1012.1
20260903041102 76 130 0.0 0.0 0.00 0.00 0.00 99 1011.8
20260903040600 76 128 0.0 0.0 0.00 0.00 0.00 99 1011.8
20260903040057 76 128 0.0 0.0 0.00 0.03 0.03 99 1011.8
20260903035553 76 128 0.0 0.0 0.00 0.03 0.03 99 1011.6
20260903035049 76 130 0.0 0.0 0.00 0.03 0.03 99 1011.8
20260903034543 76 133 0.0 0.0 0.00 0.03 0.03 99 1011.7
20260903034039 76 133 0.0 0.0 0.00 0.03 0.03 99 1011.7
20260903033533 76 133 0.0 0.0 0.00 0.03 0.03 99 1012.0
20260903033029 76 123 0.0 0.0 0.00 0.03 0.03 99 1012.0
20260903032523 76 126 0.0 0.0 0.00 0.03 0.03 99 1012.0
20260903032019 76 122 0.0 0.0 0.00 0.03 0.03 99 1011.9
20260903031513 76 136 0.0 0.0 0.00 0.03 0.03 99 1012.0
20260903031008 76 126 0.0 0.0 0.00 0.03 0.03 99 1011.8
20260903030504 76 127 0.0 0.0 0.00 0.03 0.03 99 1011.7
20260903025959 76 128 0.0 0.0 0.00 0.03 0.03 99 1011.8
20260903025455 76 122 0.0 0.0 0.00 0.03 0.03 99 1011.8
20260903024950 77 128 0.0 0.0 0.00 0.03 0.03 99 1012.0
20260903024449 77 128 0.0 0.0 0.00 0.03 0.03 99 1011.7
20260903023944 77 128 0.0 0.0 0.00 0.03 0.03 98 1011.8
20260903023440 77 115 0.0 0.0 0.00 0.03 0.03 98 1011.7
20260903022935 77 116 0.0 0.0 0.00 0.03 0.03 97 1012.1
20260903022434 77 127 0.0 0.0 0.07 0.03 0.03 96 1011.7
20260903021933 78 127 0.0 0.0 0.14 0.03 0.03 95 1012.1
20260903021428 79 129 0.0 0.0 0.12 0.02 0.02 93 1012.0
20260903020923 80 120 0.0 0.0 0.12 0.02 0.02 88 1012.6
20260903020419 80 140 0.0 0.0 0.00 0.00 0.00 85 1012.5
20260903015913 80 129 0.0 0.0 0.00 0.00 0.00 85 1012.1
20260903015409 80 130 0.0 0.0 0.00 0.00 0.00 85 1011.9
20260903014904 81 129 0.0 0.0 0.00 0.00 0.00 85 1011.9
20260903014403 81 135 0.0 0.0 0.00 0.00 0.00 84 1012.0
20260903013858 81 131 0.0 0.0 0.00 0.00 0.00 83 1012.0
20260903013357 81 132 0.0 0.0 0.00 0.00 0.00 83 1012.1
20260903012857 81 128 0.0 0.0 0.00 0.00 0.00 82 1011.9
20260903012351 82 135 0.0 0.0 0.00 0.00 0.00 81 1011.6
20260903011850 82 135 0.0 0.0 0.00 0.00 0.00 81 1011.6
20260903011344 82 131 0.0 0.0 0.00 0.00 0.00 81 1011.4
20260903010840 82 128 0.0 0.0 0.00 0.00 0.00 81 1011.4
20260903010335 82 131 0.0 0.0 0.00 0.00 0.00 81 1011.5
20260903005833 82 134 0.0 0.0 0.00 0.00 0.00 80 1011.5
20260903005329 83 129 0.0 0.0 0.00 0.00 0.00 79 1011.4
20260903004825 83 126 0.0 0.0 0.00 0.00 0.00 79 1011.0
20260903004320 83 133 0.0 0.0 0.00 0.00 0.00 78 1011.1
20260903003816 84 133 0.0 0.0 0.00 0.00 0.00 77 1011.2
20260903003310 84 134 0.0 0.0 0.00 0.00 0.00 77 1011.1
20260903002810 84 133 0.0 0.0 0.00 0.00 0.00 77 1010.9
20260903002309 85 152 0.0 0.0 0.00 0.00 0.00 76 1011.1
20260903001805 85 141 0.0 0.0 0.00 0.00 0.00 75 1011.0
20260903001300 85 136 0.0 0.0 0.00 0.00 0.00 75 1011.0
20260903000754 85 122 0.0 0.0 0.00 0.00 0.00 74 1011.0
20260903000249 86 143 0.0 0.0 0.00 0.00 0.00 74 1010.8
20260902235747 86 130 0.0 0.0 0.00 0.00 0.00 73 1011.0
20260902235242 86 125 1.0 2.0 0.00 0.00 0.00 72 1011.0
20260902234742 86 166 1.0 1.0 0.00 0.00 0.00 72 1010.7
20260902234236 87 144 0.0 1.0 0.00 0.00 0.00 71 1010.7
20260902233735 87 171 1.0 1.0 0.00 0.00 0.00 71 1010.7
20260902233230 87 151 0.0 1.0 0.00 0.00 0.00 71 1010.9
20260902232729 87 149 0.0 1.0 0.00 0.00 0.00 71 1011.1
20260902232229 87 137 0.0 0.0 0.00 0.00 0.00 71 1010.9
20260902231729 88 153 0.0 0.0 0.00 0.00 0.00 70 1010.9
20260902231224 88 128 0.0 0.0 0.00 0.00 0.00 70 1010.9
20260902230719 88 131 0.0 1.0 0.00 0.00 0.00 69 1010.9
20260902230218 88 134 0.0 0.0 0.00 0.00 0.00 68 1010.8
20260902225713 88 130 0.0 0.0 0.00 0.00 0.00 68 1011.0
20260902225213 89 132 1.0 1.0 0.00 0.00 0.00 67 1011.0
20260902224711 89 129 0.0 0.0 0.00 0.00 0.00 67 1011.5
20260902224207 88 126 0.0 0.0 0.00 0.00 0.00 67 1011.4
20260902223703 88 132 0.0 1.0 0.00 0.00 0.00 68 1011.1
20260902223202 88 244 2.0 2.0 0.00 0.00 0.00 67 1011.2
20260902222701 87 150 0.0 0.0 0.00 0.00 0.00 67 1011.5
20260902222201 87 103 0.0 0.0 0.00 0.00 0.00 67 1011.5
20260902221654 88 90 1.0 2.0 0.00 0.00 0.00 66 1011.4
20260902221148 88 88 0.0 0.0 0.00 0.00 0.00 66 1011.5
20260902220644 88 116 0.0 0.0 0.00 0.00 0.00 66 1011.2
20260902220140 89 128 0.0 0.0 0.00 0.00 0.00 65 1011.4
20260902215636 89 140 0.0 0.0 0.00 0.00 0.00 66 1011.6
20260902215131 89 140 0.0 0.0 0.00 0.00 0.00 65 1011.2
20260902214625 89 87 0.0 0.0 0.00 0.00 0.00 65 1011.0
20260902214125 90 112 0.0 0.0 0.00 0.00 0.00 65 1011.0
20260902213620 90 114 0.0 1.0 0.00 0.00 0.00 63 1010.8
20260902213119 91 124 0.0 1.0 0.00 0.00 0.00 62 1011.1
20260902212615 91 127 0.0 0.0 0.00 0.00 0.00 61 1011.0
20260902212111 90 130 0.0 0.0 0.00 0.00 0.00 63 1010.9
20260902211607 91 139 0.0 0.0 0.00 0.00 0.00 63 1011.1
20260902211102 90 139 0.0 0.0 0.00 0.00 0.00 64 1011.1
20260902210601 90 132 1.0 1.0 0.00 0.00 0.00 63 1011.2
20260902210056 91 177 0.0 0.0 0.00 0.00 0.00 63 1011.4
20260902205555 92 78 1.0 2.0 0.00 0.00 0.00 61 1011.5
20260902205051 92 145 0.0 0.0 0.00 0.00 0.00 60 1011.2
20260902204551 93 119 0.0 1.0 0.00 0.00 0.00 58 1011.4
20260902204045 93 135 2.0 3.0 0.00 0.00 0.00 58 1011.1
20260902203541 93 152 1.0 1.0 0.00 0.00 0.00 57 1011.2
20260902203040 94 127 1.0 2.0 0.00 0.00 0.00 59 1011.2
20260902202536 95 180 0.0 0.0 0.00 0.00 0.00 59 1011.2
20260902202032 96 134 0.0 1.0 0.00 0.00 0.00 58 1011.0
20260902201527 96 191 1.0 1.0 0.00 0.00 0.00 57 1011.1
20260902201021 96 141 0.0 1.0 0.00 0.00 0.00 57 1011.1
20260902200516 96 157 0.0 0.0 0.00 0.00 0.00 58 1010.9
20260902200013 96 128 3.0 6.0 0.00 0.00 0.00 57 1011.1
20260902195508 96 221 2.0 2.0 0.00 0.00 0.00 59 1011.2
20260902195007 95 154 0.0 1.0 0.00 0.00 0.00 60 1011.1
20260902194501 94 145 1.0 3.0 0.00 0.00 0.00 60 1011.1
20260902193956 95 117 1.0 1.0 0.00 0.00 0.00 59 1011.2
20260902193452 95 273 4.0 6.0 0.00 0.00 0.00 58 1011.5
20260902192950 94 231 5.0 7.0 0.00 0.00 0.00 60 1011.6
20260902192450 94 250 3.0 5.0 0.00 0.00 0.00 58 1011.8
20260902191949 96 224 5.0 9.0 0.00 0.00 0.00 57 1012.0
20260902191444 96 207 1.0 2.0 0.00 0.00 0.00 59 1012.0
20260902190939 95 153 1.0 2.0 0.00 0.00 0.00 60 1012.0
20260902190435 95 138 1.0 1.0 0.00 0.00 0.00 59 1011.9
20260902185930 94 142 1.0 2.0 0.00 0.00 0.00 63 1011.8
20260902185426 93 174 1.0 2.0 0.00 0.00 0.00 64 1011.6
20260902184921 93 159 2.0 2.0 0.00 0.00 0.00 64 1011.7
20260902184416 93 130 2.0 3.0 0.00 0.00 0.00 64 1011.9
20260902183912 92 155 1.0 1.0 0.00 0.00 0.00 66 1012.0
20260902183408 92 221 2.0 3.0 0.00 0.00 0.00 65 1012.0
20260902182903 92 112 1.0 2.0 0.00 0.00 0.00 65 1011.9
20260902182354 92 248 3.0 3.0 0.00 0.00 0.00 64 1012.1
20260902181850 92 177 2.0 2.0 0.00 0.00 0.00 65 1012.4
20260902181346 93 125 2.0 5.0 0.00 0.00 0.00 65 1012.5
20260902180845 91 136 0.0 0.0 0.00 0.00 0.00 66 1012.2